^^
Grace C. Lehan Memorial Weather Station Historical Data
Daily Summary for September 11, 2021 Units:  English    Metric   Both
Daily Weekly Monthly Yearly
  High: Low: Average:
Temperature: 70.3 °F 58.3 °F 63.4 °F
Dew Point: 62.8 °F 56.3 °F 59.1 °F
Humidity: 93% 72.2% 86%
Wind Speed: 4.5mph 0mph 0.4mph
Wind Gust: 14mph - -
Wind- - East
Pressure: 30.12 in 30.05 in -
Precipitation: 0.00 in    
 
 
Tabular Data for September 11, 2021
Time Temperature Dew Point Pressure Wind Wind Speed Wind Gust Humidity Rainfall Rate (Hourly) solar
00:09 60 °F 57.5 °F 30.12 in NNW 0.5 mph 6 mph 91.6% 0.00 in 0 W/m2
00:14 60 °F 57.6 °F 30.12 in NE 0.1 mph 6 mph 92% 0.00 in 0 W/m2
00:19 59.9 °F 57.6 °F 30.12 in NNW 0.3 mph 6 mph 92% 0.00 in 0 W/m2
00:24 59.9 °F 57.6 °F 30.12 in NNW 0.8 mph 10 mph 92% 0.00 in 0 W/m2
00:29 59.8 °F 57.5 °F 30.11 in North 0.1 mph 10 mph 92% 0.00 in 0 W/m2
00:34 59.8 °F 57.7 °F 30.11 in Calm   10 mph 92.6% 0.00 in 0 W/m2
00:39 59.8 °F 57.8 °F 30.11 in ENE 0.1 mph 4 mph 93% 0.00 in 0 W/m2
00:44 59.8 °F 57.8 °F 30.11 in East 0.7 mph 4 mph 93% 0.00 in 0 W/m2
00:49 59.8 °F 57.8 °F 30.11 in Calm   4 mph 93% 0.00 in 0 W/m2
00:54 59.8 °F 57.8 °F 30.11 in Calm   4 mph 93% 0.00 in 0 W/m2
00:59 59.8 °F 57.8 °F 30.10 in Calm   4 mph 93% 0.00 in 0 W/m2
01:04 59.9 °F 57.8 °F 30.10 in Calm   4 mph 93% 0.00 in 0 W/m2
01:09 59.9 °F 57.9 °F 30.10 in North 0.1 mph 3 mph 93% 0.00 in 0 W/m2
01:14 59.9 °F 57.9 °F 30.10 in North 0.6 mph 5 mph 93% 0.00 in 0 W/m2
01:19 59.9 °F 57.9 °F 30.10 in North 0.1 mph 5 mph 93% 0.00 in 0 W/m2
01:24 59.9 °F 57.9 °F 30.10 in NW 0.3 mph 7 mph 93% 0.00 in 0 W/m2
01:28 60 °F 58 °F 30.10 in NW 1 mph 7 mph 93% 0.00 in 0 W/m2
01:34 60 °F 58 °F 30.10 in NE 0.1 mph 7 mph 93% 0.00 in 0 W/m2
01:39 60 °F 58 °F 30.09 in NNE 0.9 mph 5 mph 93% 0.00 in 0 W/m2
01:44 60 °F 58 °F 30.09 in ENE 0.3 mph 5 mph 93% 0.00 in 0 W/m2
01:49 60 °F 58 °F 30.09 in North 0.2 mph 5 mph 93% 0.00 in 0 W/m2
01:54 60 °F 58 °F 30.08 in NNE 0.1 mph 5 mph 93% 0.00 in 0 W/m2
01:59 60 °F 58 °F 30.08 in North 0.2 mph 6 mph 93% 0.00 in 0 W/m2
02:04 60 °F 58 °F 30.08 in South 0.1 mph 6 mph 93% 0.00 in 0 W/m2
02:09 60 °F 57.9 °F 30.08 in SE 0.2 mph 4 mph 92.7% 0.00 in 0 W/m2
02:14 60 °F 58 °F 30.08 in NNE 0.9 mph 6 mph 93% 0.00 in 0 W/m2
02:19 60 °F 57.7 °F 30.08 in ENE 0.1 mph 6 mph 92.1% 0.00 in 0 W/m2
02:24 60 °F 57.7 °F 30.08 in ENE 0.6 mph 6 mph 92% 0.00 in 0 W/m2
02:29 60 °F 57.7 °F 30.08 in ENE 0.3 mph 7 mph 92% 0.00 in 0 W/m2
02:34 60 °F 57.7 °F 30.08 in ENE 0.4 mph 7 mph 92% 0.00 in 0 W/m2
02:39 60 °F 57.7 °F 30.08 in NNE 0.4 mph 4 mph 92% 0.00 in 0 W/m2
02:44 60 °F 57.7 °F 30.07 in ENE 1 mph 4 mph 92% 0.00 in 0 W/m2
02:49 60 °F 57.7 °F 30.07 in NNE 0.4 mph 4 mph 92% 0.00 in 0 W/m2
02:54 60 °F 57.7 °F 30.08 in NE 0.1 mph 4 mph 92% 0.00 in 0 W/m2
02:59 60 °F 57.7 °F 30.07 in North 0.4 mph 4 mph 92.2% 0.00 in 0 W/m2
03:04 60 °F 57.7 °F 30.08 in NNW 0.5 mph 6 mph 92.2% 0.00 in 0 W/m2
03:09 60 °F 57.7 °F 30.08 in East 0.3 mph 6 mph 92% 0.00 in 0 W/m2
03:14 60 °F 57.7 °F 30.08 in NNE 0.6 mph 6 mph 92% 0.00 in 0 W/m2
03:19 60 °F 57.7 °F 30.08 in ENE 0.6 mph 6 mph 92% 0.00 in 0 W/m2
03:24 60 °F 57.7 °F 30.08 in NNE 0.7 mph 6 mph 92% 0.00 in 0 W/m2
03:29 60 °F 57.7 °F 30.08 in NNE 0.1 mph 6 mph 92% 0.00 in 0 W/m2
03:34 60 °F 57.7 °F 30.08 in NE 0.5 mph 6 mph 92% 0.00 in 0 W/m2
03:39 60 °F 57.7 °F 30.07 in NNW 0.5 mph 7 mph 92% 0.00 in 0 W/m2
03:44 60 °F 57.7 °F 30.07 in NNE 0.3 mph 7 mph 92% 0.00 in 0 W/m2
03:49 60 °F 57.7 °F 30.07 in NE 1 mph 7 mph 92% 0.00 in 0 W/m2
03:54 60 °F 57.7 °F 30.07 in NNE 0.2 mph 7 mph 92% 0.00 in 0 W/m2
03:59 60 °F 57.7 °F 30.07 in Calm   7 mph 92% 0.00 in 0 W/m2
04:00 60 °F 57.7 °F 30.07 in Calm   7 mph 92% 0.00 in 0 W/m2
04:09 60 °F 57.7 °F 30.07 in Calm     92% 0.00 in 0 W/m2
04:14 60 °F 57.7 °F 30.07 in NNW 0.6 mph 6 mph 92% 0.00 in 0 W/m2
04:19 60 °F 57.7 °F 30.07 in NNE 0.6 mph 6 mph 92% 0.00 in 0 W/m2
04:24 60 °F 57.7 °F 30.07 in North 0.9 mph 6 mph 92% 0.00 in 0 W/m2
04:29 60 °F 57.7 °F 30.07 in East 0.1 mph 6 mph 92% 0.00 in 0 W/m2
04:34 60 °F 57.7 °F 30.07 in NE 0.1 mph 6 mph 92% 0.00 in 0 W/m2
04:39 60 °F 57.7 °F 30.07 in NNE 1.2 mph 7 mph 92% 0.00 in 0 W/m2
04:44 60 °F 57.7 °F 30.07 in North 0.8 mph 7 mph 92% 0.00 in 0 W/m2
04:49 60 °F 57.7 °F 30.08 in ENE 1.2 mph 10 mph 92% 0.00 in 0 W/m2
04:54 60 °F 57.7 °F 30.08 in NE 0.5 mph 10 mph 92% 0.00 in 0 W/m2
04:59 60 °F 57.7 °F 30.08 in NE 0.5 mph 10 mph 92% 0.00 in 0 W/m2
05:04 60 °F 57.7 °F 30.08 in North 0.4 mph 10 mph 92% 0.00 in 0 W/m2
05:09 60 °F 57.7 °F 30.08 in North 0.4 mph 5 mph 92% 0.00 in 0 W/m2
05:14 60 °F 57.7 °F 30.08 in North 0.4 mph 5 mph 92% 0.00 in 0 W/m2
05:19 60 °F 57.7 °F 30.08 in ENE 1.4 mph 7 mph 92% 0.00 in 0 W/m2
05:24 59.9 °F 57.6 °F 30.08 in NNE 0.7 mph 7 mph 92% 0.00 in 0 W/m2
05:29 59.9 °F 57.6 °F 30.08 in North 1.4 mph 7 mph 92% 0.00 in 0 W/m2
05:34 59.9 °F 57.6 °F 30.08 in NE 1.2 mph 7 mph 92% 0.00 in 0 W/m2
05:39 59.9 °F 57.6 °F 30.08 in ENE 1.2 mph 7 mph 92% 0.00 in 0 W/m2
05:44 59.8 °F 57.5 °F 30.08 in NE 0.8 mph 7 mph 92% 0.00 in 0 W/m2
05:49 59.8 °F 57.5 °F 30.08 in ENE 0.5 mph 7 mph 92% 0.00 in 0 W/m2
05:54 59.8 °F 57.5 °F 30.08 in East 0.9 mph 7 mph 92% 0.00 in 0 W/m2
05:59 59.8 °F 57.5 °F 30.08 in ENE 2.6 mph 7 mph 92% 0.00 in 0 W/m2
06:04 59.8 °F 57.5 °F 30.08 in ENE 1 mph 7 mph 92% 0.00 in 0 W/m2
06:09 59.8 °F 57.5 °F 30.08 in ENE 0.2 mph 6 mph 92% 0.00 in 0 W/m2
06:13 59.8 °F 57.5 °F 30.08 in North 0.2 mph 6 mph 92% 0.00 in 0 W/m2
06:19 59.8 °F 57.5 °F 30.08 in Calm   6 mph 92% 0.00 in 0 W/m2
06:24 59.9 °F 57.6 °F 30.08 in NNE 0.4 mph 6 mph 92% 0.00 in 0 W/m2
06:29 59.9 °F 57.6 °F 30.08 in NNE 0.5 mph 7 mph 92% 0.00 in 0 W/m2
06:34 59.9 °F 57.6 °F 30.09 in Calm   7 mph 92% 0.00 in 0 W/m2
06:39 59.9 °F 57.6 °F 30.09 in East 0.2 mph 3 mph 92% 0.00 in 0 W/m2
06:44 59.9 °F 57.6 °F 30.09 in NNE 0.4 mph 4 mph 92% 0.00 in 0 W/m2
06:49 60 °F 57.7 °F 30.09 in NNE 0.3 mph 4 mph 92% 0.00 in 0 W/m2
06:54 60 °F 57.6 °F 30.09 in NNE 0.2 mph 4 mph 91.8% 0.00 in 0 W/m2
06:59 60 °F 57.4 °F 30.09 in NE 0.8 mph 6 mph 91% 0.00 in 0 W/m2
07:04 60 °F 57.4 °F 30.10 in North 0.7 mph 6 mph 91% 0.00 in 0 W/m2
07:09 60 °F 57.4 °F 30.10 in ENE 0.1 mph 5 mph 91.2% 0.00 in 0 W/m2
07:14 60.1 °F 57.6 °F 30.10 in ENE 0.4 mph 6 mph 91.7% 0.00 in 0 W/m2
07:19 60.1 °F 57.8 °F 30.10 in NE 0.2 mph 6 mph 92% 0.00 in 0 W/m2
07:24 60.1 °F 57.8 °F 30.11 in East 0.4 mph 6 mph 92% 0.00 in 0 W/m2
07:29 60.1 °F 57.5 °F 30.11 in NW 0.7 mph 7 mph 91% 0.00 in 5 W/m2
07:34 60.1 °F 57.5 °F 30.11 in NNE 0.2 mph 7 mph 91% 0.00 in 7 W/m2
07:39 60.1 °F 57.5 °F 30.11 in NNW 0.6 mph 3 mph 91% 0.00 in 9 W/m2
07:44 60.1 °F 57.5 °F 30.11 in North 0.2 mph 4 mph 91% 0.00 in 11 W/m2
07:49 60.1 °F 57.5 °F 30.11 in Calm   4 mph 91% 0.00 in 12 W/m2
07:54 60.2 °F 57.6 °F 30.11 in North 1.2 mph 6 mph 91% 0.00 in 14 W/m2
07:59 60.2 °F 57.6 °F 30.12 in Calm   6 mph 91% 0.00 in 19 W/m2
08:09 60.3 °F 57.7 °F 30.11 in NE 0.6 mph 7 mph 91% 0.00 in 42 W/m2
08:14 60.3 °F 57.7 °F 30.11 in ENE 1.3 mph 9 mph 91% 0.00 in 51 W/m2
08:19 60.4 °F 57.8 °F 30.11 in NE 0.2 mph 9 mph 91% 0.00 in 56 W/m2
08:24 60.5 °F 57.8 °F 30.12 in NE 0.6 mph 9 mph 91% 0.00 in 42 W/m2
08:29 60.5 °F 57.9 °F 30.11 in ENE 1.3 mph 9 mph 91% 0.00 in 37 W/m2
08:34 60.5 °F 57.9 °F 30.11 in NE 0.4 mph 9 mph 91% 0.00 in 56 W/m2
08:39 60.6 °F 58 °F 30.11 in NE 0.4 mph 4 mph 91% 0.00 in 54 W/m2
08:44 60.7 °F 58.1 °F 30.11 in Calm   4 mph 91% 0.00 in 77 W/m2
08:49 60.9 °F 58.3 °F 30.11 in NE 1 mph 7 mph 91.2% 0.00 in 93 W/m2
08:54 61 °F 58.4 °F 30.11 in ENE 0.4 mph 7 mph 91% 0.00 in 114 W/m2
08:59 61.1 °F 58.5 °F 30.11 in ENE 0.4 mph 7 mph 91% 0.00 in 125 W/m2
09:04 61.3 °F 58.7 °F 30.11 in ENE 0.3 mph 7 mph 91% 0.00 in 116 W/m2
09:09 61.6 °F 58.9 °F 30.12 in NNE 0.5 mph 4 mph 90.9% 0.00 in 116 W/m2
09:14 61.8 °F 58.8 °F 30.12 in NE 0.3 mph 4 mph 90% 0.00 in 109 W/m2
09:19 62 °F 59.1 °F 30.11 in NNE 0.1 mph 4 mph 90.2% 0.00 in 120 W/m2
09:24 62.2 °F 59.2 °F 30.11 in NE 0.1 mph 4 mph 89.8% 0.00 in 109 W/m2
09:29 62.4 °F 59.4 °F 30.11 in NW 0.5 mph 5 mph 90% 0.00 in 105 W/m2
09:34 62.6 °F 59.4 °F 30.11 in Calm   5 mph 89.5% 0.00 in 105 W/m2
09:39 62.7 °F 59.4 °F 30.11 in NE 0.3 mph 5 mph 89% 0.00 in 105 W/m2
09:44 62.8 °F 59.5 °F 30.11 in NE 0.5 mph 5 mph 89% 0.00 in 156 W/m2
09:49 63 °F 59.7 °F 30.11 in NE 1.1 mph 5 mph 89% 0.00 in 162 W/m2
09:54 63.1 °F 59.7 °F 30.11 in ENE 1.2 mph 7 mph 88.5% 0.00 in 209 W/m2
09:59 63.4 °F 59.9 °F 30.11 in East 0.4 mph 7 mph 88.3% 0.00 in 250 W/m2
10:04 63.7 °F 60.1 °F 30.11 in East 0.1 mph 7 mph 88% 0.00 in 195 W/m2
10:09 64.1 °F 60.5 °F 30.11 in NE 0.7 mph 6 mph 88.2% 0.00 in 223 W/m2
10:14 64.3 °F 60.4 °F 30.10 in NE 1.1 mph 6 mph 87.1% 0.00 in 237 W/m2
10:19 64.6 °F 60.7 °F 30.10 in Calm   6 mph 87% 0.00 in 199 W/m2
10:24 65 °F 61 °F 30.11 in ESE 0.1 mph 6 mph 87% 0.00 in 200 W/m2
10:29 65.2 °F 61.1 °F 30.11 in East 0.1 mph 6 mph 86.3% 0.00 in 209 W/m2
10:34 65.6 °F 61.3 °F 30.11 in NNW 0.9 mph 7 mph 86% 0.00 in 211 W/m2
10:39 65.8 °F 61.3 °F 30.11 in NW 0.4 mph 7 mph 85.3% 0.00 in 227 W/m2
10:44 66.1 °F 61.4 °F 30.11 in NE 0.5 mph 7 mph 84.8% 0.00 in 197 W/m2
10:49 66.1 °F 60.9 °F 30.11 in ENE 0.4 mph 7 mph 83.3% 0.00 in 193 W/m2
10:54 66.2 °F 61.2 °F 30.11 in Calm   7 mph 84% 0.00 in 195 W/m2
10:59 66.2 °F 61.3 °F 30.11 in NNE 0.2 mph 7 mph 84% 0.00 in 158 W/m2
11:04 66.3 °F 61.3 °F 30.11 in NNE 0.1 mph 7 mph 83.8% 0.00 in 146 W/m2
11:09 66.3 °F 61.1 °F 30.11 in North 0.7 mph 6 mph 83.3% 0.00 in 149 W/m2
11:14 66.3 °F 61 °F 30.10 in Calm   6 mph 83% 0.00 in 146 W/m2
11:19 66.1 °F 60.8 °F 30.10 in NNW 0.3 mph 6 mph 83% 0.00 in 128 W/m2
11:24 65.9 °F 60.7 °F 30.10 in NE 0.2 mph 6 mph 83.2% 0.00 in 116 W/m2
11:29 65.6 °F 60.6 °F 30.10 in NW 1.2 mph 6 mph 83.7% 0.00 in 121 W/m2
11:34 65.5 °F 60.8 °F 30.10 in NNE 0.2 mph 6 mph 84.7% 0.00 in 229 W/m2
11:39 65.7 °F 61.2 °F 30.10 in NNE 0.2 mph 3 mph 85.5% 0.00 in 279 W/m2
11:44 65.9 °F 61.3 °F 30.10 in NE 0.7 mph 6 mph 85% 0.00 in 283 W/m2
11:49 66.2 °F 61.4 °F 30.10 in NNW 0.6 mph 6 mph 84.7% 0.00 in 267 W/m2
11:54 66.5 °F 61.6 °F 30.09 in NNE 0.2 mph 6 mph 84.2% 0.00 in 234 W/m2
11:59 66.8 °F 61.7 °F 30.09 in North 0.3 mph 7 mph 83.7% 0.00 in 255 W/m2
12:09 67.4 °F 62.1 °F 30.09 in North 0.5 mph 5 mph 83.2% 0.00 in 251 W/m2
12:14 67.6 °F 62.1 °F 30.09 in NE 0.4 mph 5 mph 82.5% 0.00 in 276 W/m2
12:19 67.6 °F 61.9 °F 30.09 in ENE 1.3 mph 5 mph 81.8% 0.00 in 258 W/m2
12:24 67.8 °F 62.1 °F 30.09 in North 0.6 mph 5 mph 82.1% 0.00 in 267 W/m2
12:29 68 °F 62.3 °F 30.09 in NNW 1.1 mph 9 mph 82% 0.00 in 248 W/m2
12:34 68.1 °F 62.4 °F 30.08 in NNW 0.1 mph 9 mph 82% 0.00 in 185 W/m2
12:39 68.2 °F 62.3 °F 30.08 in NE 0.8 mph 8 mph 81.5% 0.00 in 251 W/m2
12:44 68.1 °F 61.9 °F 30.08 in ENE 0.5 mph 8 mph 80.6% 0.00 in 265 W/m2
12:49 68.2 °F 62.1 °F 30.08 in North 0.5 mph 8 mph 81% 0.00 in 265 W/m2
12:54 68.4 °F 62.4 °F 30.08 in ENE 0.3 mph 8 mph 81.2% 0.00 in 183 W/m2
12:59 68.3 °F 62.1 °F 30.08 in Calm   8 mph 80.4% 0.00 in 211 W/m2
13:04 68.3 °F 62.1 °F 30.08 in North 1.2 mph 11 mph 80.5% 0.00 in 258 W/m2
13:09 68.2 °F 62 °F 30.08 in ENE 1 mph 11 mph 80.5% 0.00 in 278 W/m2
13:14 68.2 °F 61.8 °F 30.08 in ENE 0.8 mph 11 mph 80% 0.00 in 229 W/m2
13:19 68.2 °F 62 °F 30.08 in North 1.2 mph 11 mph 80.5% 0.00 in 234 W/m2
13:24 68.3 °F 61.9 °F 30.08 in NE 0.2 mph 11 mph 80.1% 0.00 in 250 W/m2
13:29 68.4 °F 62.2 °F 30.08 in NE 0.9 mph 11 mph 80.4% 0.00 in 243 W/m2
13:34 68.6 °F 61.8 °F 30.07 in ENE 2.1 mph 14 mph 79.1% 0.00 in 116 W/m2
13:39 68.5 °F 61.8 °F 30.07 in ENE 1.2 mph 14 mph 79.2% 0.00 in 141 W/m2
13:44 68.3 °F 61.6 °F 30.07 in NNW 1.3 mph 14 mph 79.2% 0.00 in 149 W/m2
13:49 68.3 °F 61.8 °F 30.07 in NE 1.1 mph 14 mph 79.8% 0.00 in 171 W/m2
13:54 68.4 °F 62.2 °F 30.07 in NNW 0.2 mph 14 mph 80.4% 0.00 in 213 W/m2
13:59 68.7 °F 62.4 °F 30.07 in NNE 0.6 mph 14 mph 80.3% 0.00 in 213 W/m2
14:04 68.8 °F 61.9 °F 30.07 in ENE 1 mph 14 mph 78.5% 0.00 in 213 W/m2
14:09 69 °F 62 °F 30.07 in East 0.3 mph 5 mph 78.5% 0.00 in 193 W/m2
14:14 69 °F 61.9 °F 30.07 in NE 2.2 mph 10 mph 78.1% 0.00 in 234 W/m2
14:19 69.2 °F 62.2 °F 30.07 in ENE 1 mph 10 mph 78.6% 0.00 in 244 W/m2
14:24 69.3 °F 62.3 °F 30.07 in ENE 0.3 mph 10 mph 78.5% 0.00 in 200 W/m2
14:29 69.5 °F 62.3 °F 30.07 in NE 1.1 mph 10 mph 78% 0.00 in 190 W/m2
14:34 69.6 °F 62.5 °F 30.06 in North 0.7 mph 10 mph 78% 0.00 in 204 W/m2
14:39 69.8 °F 62.6 °F 30.07 in NE 0.4 mph 5 mph 77.8% 0.00 in 209 W/m2
14:44 70 °F 62.8 °F 30.07 in NNE 0.1 mph 5 mph 78.1% 0.00 in 183 W/m2
14:49 69.9 °F 62.1 °F 30.06 in East 1.3 mph 6 mph 76.3% 0.00 in 116 W/m2
14:54 69.7 °F 61.8 °F 30.06 in NE 0.3 mph 6 mph 76% 0.00 in 74 W/m2
14:59 69.6 °F 62 °F 30.06 in ENE 1.4 mph 9 mph 76.7% 0.00 in 109 W/m2
15:04 69.6 °F 61.7 °F 30.06 in ENE 0.3 mph 9 mph 76% 0.00 in 318 W/m2
15:09 69.7 °F 61.7 °F 30.05 in ENE 1.2 mph 7 mph 75.9% 0.00 in 76 W/m2
15:14 69.7 °F 61.4 °F 30.05 in East 0.8 mph 7 mph 74.8% 0.00 in 79 W/m2
15:19 69.8 °F 61.3 °F 30.05 in ENE 2 mph 7 mph 74.5% 0.00 in 197 W/m2
15:24 69.8 °F 61.2 °F 30.05 in ENE 1.2 mph 7 mph 74.1% 0.00 in 197 W/m2
15:29 69.9 °F 61.8 °F 30.05 in ENE 0.4 mph 7 mph 75.5% 0.00 in 207 W/m2
15:34 70.1 °F 61.6 °F 30.05 in ENE 1.2 mph 10 mph 74.3% 0.00 in 207 W/m2
15:39 70.2 °F 61.2 °F 30.05 in NNE 0.6 mph 10 mph 73.2% 0.00 in 151 W/m2
15:44 70.3 °F 61.1 °F 30.05 in NE 1.1 mph 10 mph 72.6% 0.00 in 42 W/m2
15:49 70.2 °F 60.9 °F 30.05 in NE 0.8 mph 10 mph 72.3% 0.00 in 56 W/m2
15:54 70.2 °F 61.2 °F 30.05 in ENE 1.8 mph 10 mph 73% 0.00 in 86 W/m2
15:59 70.2 °F 61.2 °F 30.05 in ENE 1.7 mph 10 mph 73% 0.00 in 97 W/m2
16:00 70.3 °F 61.3 °F 30.05 in East 4.5 mph 10 mph 73% 0.00 in 104 W/m2
16:09 70.3 °F 61 °F 30.06 in NE 1.9 mph 7 mph 72.2% 0.00 in 30 W/m2
16:14 70.2 °F 60.8 °F 30.05 in NE 1.1 mph 7 mph 72.3% 0.00 in 35 W/m2
16:19 70 °F 61 °F 30.06 in ENE 0.8 mph 7 mph 73% 0.00 in 95 W/m2
16:24 70 °F 60.9 °F 30.06 in NE 1.9 mph 7 mph 72.8% 0.00 in 98 W/m2
16:29 70.2 °F 61.1 °F 30.06 in NE 1.9 mph 9 mph 72.9% 0.00 in 83 W/m2
16:34 70.3 °F 61 °F 30.06 in ENE 1.2 mph 9 mph 72.4% 0.00 in 35 W/m2
16:39 70.3 °F 61 °F 30.06 in ENE 0.1 mph 5 mph 72.6% 0.00 in 26 W/m2
16:44 70.1 °F 61.1 °F 30.06 in East 0.2 mph 5 mph 73% 0.00 in 33 W/m2
16:49 69.9 °F 60.9 °F 30.06 in NNE 0.7 mph 7 mph 73% 0.00 in 51 W/m2
16:54 69.9 °F 60.9 °F 30.06 in NNW 0.7 mph 7 mph 73.2% 0.00 in 72 W/m2
16:59 69.9 °F 61.2 °F 30.06 in NNE 0.9 mph 7 mph 73.9% 0.00 in 76 W/m2
17:04 70 °F 60.8 °F 30.06 in East 0.7 mph 7 mph 72.7% 0.00 in 58 W/m2
17:09 70 °F 61 °F 30.06 in ENE 0.8 mph 6 mph 73% 0.00 in 42 W/m2
17:14 69.9 °F 60.8 °F 30.06 in ENE 1.2 mph 7 mph 72.8% 0.00 in 42 W/m2
17:19 69.8 °F 60.6 °F 30.06 in NE 0.6 mph 7 mph 72.5% 0.00 in 33 W/m2
17:24 69.6 °F 60.6 °F 30.06 in ENE 0.2 mph 7 mph 73% 0.00 in 21 W/m2
17:29 69.4 °F 60.4 °F 30.06 in ENE 0.3 mph 7 mph 73% 0.00 in 14 W/m2
17:34 69.2 °F 60.5 °F 30.06 in Calm   7 mph 73.8% 0.00 in 12 W/m2
17:39 69 °F 60.6 °F 30.06 in Calm     74.4% 0.00 in 12 W/m2
17:44 68.8 °F 60.6 °F 30.06 in Calm     75% 0.00 in 11 W/m2
17:49 68.6 °F 60.3 °F 30.06 in ENE 0.2 mph 3 mph 75% 0.00 in 7 W/m2
17:54 68.4 °F 60.4 °F 30.06 in ENE 0.4 mph 4 mph 75.7% 0.00 in 5 W/m2
17:59 68.2 °F 60.3 °F 30.07 in Calm   4 mph 76% 0.00 in 0 W/m2
18:04 68 °F 60.3 °F 30.07 in Calm   4 mph 76.6% 0.00 in 0 W/m2
18:09 67.8 °F 60.3 °F 30.07 in Calm     77% 0.00 in 0 W/m2
18:14 67.6 °F 60.3 °F 30.07 in Calm     77.4% 0.00 in 0 W/m2
18:19 67.3 °F 60.3 °F 30.07 in Calm     78% 0.00 in 0 W/m2
18:24 67.1 °F 60.1 °F 30.06 in Calm     78% 0.00 in 0 W/m2
18:29 66.9 °F 60.1 °F 30.07 in Calm     78.9% 0.00 in 0 W/m2
18:34 66.7 °F 60 °F 30.07 in Calm     79% 0.00 in 0 W/m2
18:39 66.5 °F 59.8 °F 30.07 in Calm     79.1% 0.00 in 0 W/m2
18:44 66.3 °F 59.9 °F 30.07 in Calm     80% 0.00 in 0 W/m2
18:49 66 °F 59.8 °F 30.07 in Calm     80.3% 0.00 in 0 W/m2
18:54 65.8 °F 59.8 °F 30.07 in Calm     81% 0.00 in 0 W/m2
18:59 65.6 °F 59.8 °F 30.08 in Calm     81.5% 0.00 in 0 W/m2
19:04 65.3 °F 59.7 °F 30.08 in Calm     82% 0.00 in 0 W/m2
19:09 65 °F 59.7 °F 30.08 in Calm     82.8% 0.00 in 0 W/m2
19:14 64.7 °F 59.4 °F 30.08 in Calm     83% 0.00 in 0 W/m2
19:19 64.5 °F 59.5 °F 30.08 in Calm     83.8% 0.00 in 0 W/m2
19:24 64.2 °F 59.3 °F 30.08 in Calm     84% 0.00 in 0 W/m2
19:29 64 °F 59.1 °F 30.08 in Calm     84% 0.00 in 0 W/m2
19:34 63.8 °F 59.2 °F 30.08 in Calm     84.9% 0.00 in 0 W/m2
19:39 63.6 °F 59 °F 30.08 in Calm     85% 0.00 in 0 W/m2
19:44 63.4 °F 59.1 °F 30.08 in Calm     86% 0.00 in 0 W/m2
19:49 63.2 °F 59 °F 30.08 in Calm     86% 0.00 in 0 W/m2
19:54 63 °F 58.8 °F 30.08 in Calm     86% 0.00 in 0 W/m2
19:59 62.9 °F 58.6 °F 30.08 in Calm     86% 0.00 in 0 W/m2
20:00 62.8 °F 58.6 °F 30.08 in Calm     86% 0.00 in 0 W/m2
20:09 62.5 °F 58.5 °F 30.09 in Calm     86.7% 0.00 in 0 W/m2
20:14 62.4 °F 58.5 °F 30.08 in Calm     87% 0.00 in 0 W/m2
20:19 62.3 °F 58.4 °F 30.08 in Calm     87.2% 0.00 in 0 W/m2
20:24 62.2 °F 58.6 °F 30.08 in Calm     88% 0.00 in 0 W/m2
20:29 62.1 °F 58.5 °F 30.08 in Calm     88% 0.00 in 0 W/m2
20:34 62 °F 58.4 °F 30.08 in Calm     88% 0.00 in 0 W/m2
20:39 61.9 °F 58.3 °F 30.08 in Calm     88% 0.00 in 0 W/m2
20:44 61.8 °F 58.2 °F 30.08 in Calm     88% 0.00 in 0 W/m2
20:49 61.6 °F 58 °F 30.08 in Calm     88% 0.00 in 0 W/m2
20:54 61.5 °F 57.9 °F 30.08 in Calm     88% 0.00 in 0 W/m2
20:59 61.3 °F 57.8 °F 30.08 in Calm     88.2% 0.00 in 0 W/m2
21:04 61.2 °F 58 °F 30.08 in Calm     89% 0.00 in 0 W/m2
21:09 61.1 °F 57.8 °F 30.08 in Calm     89% 0.00 in 0 W/m2
21:14 60.9 °F 57.7 °F 30.09 in Calm     89% 0.00 in 0 W/m2
21:19 60.8 °F 57.6 °F 30.09 in Calm     89% 0.00 in 0 W/m2
21:24 60.7 °F 57.7 °F 30.09 in Calm     89.7% 0.00 in 0 W/m2
21:29 60.7 °F 57.7 °F 30.09 in Calm     90% 0.00 in 0 W/m2
21:34 60.5 °F 57.6 °F 30.09 in Calm     90% 0.00 in 0 W/m2
21:39 60.4 °F 57.6 °F 30.09 in Calm     90.4% 0.00 in 0 W/m2
21:44 60.3 °F 57.3 °F 30.09 in Calm     90% 0.00 in 0 W/m2
21:49 60.2 °F 57.2 °F 30.09 in Calm     90% 0.00 in 0 W/m2
21:54 60 °F 57.2 °F 30.09 in Calm     90.3% 0.00 in 0 W/m2
21:59 60 °F 57.3 °F 30.09 in Calm     91% 0.00 in 0 W/m2
22:04 59.9 °F 57.2 °F 30.09 in Calm     91% 0.00 in 0 W/m2
22:09 59.8 °F 57.2 °F 30.09 in Calm     91% 0.00 in 0 W/m2
22:14 59.8 °F 57.2 °F 30.08 in Calm     91% 0.00 in 0 W/m2
22:19 59.7 °F 57.2 °F 30.08 in Calm     91.4% 0.00 in 0 W/m2
22:24 59.7 °F 57.4 °F 30.08 in Calm     92% 0.00 in 0 W/m2
22:29 59.7 °F 57.3 °F 30.08 in Calm     92% 0.00 in 0 W/m2
22:34 59.6 °F 57.3 °F 30.08 in Calm     92% 0.00 in 0 W/m2
22:39 59.6 °F 57.3 °F 30.08 in Calm     92% 0.00 in 0 W/m2
22:44 59.5 °F 57.2 °F 30.08 in Calm     92% 0.00 in 0 W/m2
22:49 59.4 °F 57.1 °F 30.08 in Calm     92% 0.00 in 0 W/m2
22:54 59.4 °F 57.1 °F 30.08 in Calm     92% 0.00 in 0 W/m2
22:59 59.3 °F 57 °F 30.09 in Calm     92% 0.00 in 0 W/m2
23:04 59.2 °F 56.9 °F 30.09 in Calm     92% 0.00 in 0 W/m2
23:09 59.1 °F 56.8 °F 30.09 in Calm     92.2% 0.00 in 0 W/m2
23:14 59 °F 57 °F 30.09 in Calm     93% 0.00 in 0 W/m2
23:19 58.9 °F 56.7 °F 30.09 in Calm     92.3% 0.00 in 0 W/m2
23:24 58.9 °F 56.9 °F 30.09 in Calm     93% 0.00 in 0 W/m2
23:29 58.8 °F 56.8 °F 30.09 in Calm     93% 0.00 in 0 W/m2
23:34 58.7 °F 56.7 °F 30.09 in Calm     93% 0.00 in 0 W/m2
23:39 58.6 °F 56.6 °F 30.09 in Calm     93% 0.00 in 0 W/m2
23:44 58.5 °F 56.5 °F 30.09 in Calm     93% 0.00 in 0 W/m2
23:49 58.5 °F 56.4 °F 30.09 in Calm     93% 0.00 in 0 W/m2
23:54 58.4 °F 56.4 °F 30.09 in Calm     93% 0.00 in 0 W/m2
23:59 58.3 °F 56.3 °F 30.08 in Calm     93% 0.00 in 0 W/m2
Hartford County Weather
Compliments of Weather Underground - 4 mb